Time,TemperatureF,DewpointF,PressureIn,WindDirection,WindDirectionDegrees,WindSpeedMPH,WindSpeedGustMPH,Humidity,HourlyPrecipIn,Conditions,Clouds,dailyrainin,SoftwareType,DateUTC
2013-08-26 00:03:00,66.7,56.0,30.17,WSW,257,0.0,2.0,69,0.00,,,0.00,weatherlink.com 1.10,2013-08-26 04:03:00,
2013-08-26 00:18:00,66.7,56.0,30.17,NNE,30,0.0,1.0,69,0.00,,,0.00,weatherlink.com 1.10,2013-08-26 04:18:00,
2013-08-26 00:33:00,66.6,57.0,30.17,WNW,287,1.0,2.0,70,0.00,,,0.00,weatherlink.com 1.10,2013-08-26 04:33:00,
2013-08-26 00:48:00,66.5,57.0,30.17,SW,218,0.0,3.0,71,0.00,,,0.00,weatherlink.com 1.10,2013-08-26 04:48:00,
2013-08-26 01:03:00,66.4,57.0,30.17,WNW,291,0.0,2.0,72,0.00,,,0.00,weatherlink.com 1.10,2013-08-26 05:03:00,
2013-08-26 01:18:00,66.4,57.0,30.16,WSW,242,0.0,2.0,72,0.00,,,0.00,weatherlink.com 1.10,2013-08-26 05:18:00,
2013-08-26 01:33:00,66.4,58.0,30.16,West,261,1.0,2.0,73,0.00,,,0.00,weatherlink.com 1.10,2013-08-26 05:33:00,
2013-08-26 01:48:00,66.4,58.0,30.15,SW,233,0.0,2.0,73,0.00,,,0.00,weatherlink.com 1.10,2013-08-26 05:48:00,
2013-08-26 02:03:00,66.3,57.0,30.15,ENE,61,0.0,1.0,73,0.00,,,0.00,weatherlink.com 1.10,2013-08-26 06:03:00,
2013-08-26 02:18:00,66.2,58.0,30.14,WSW,250,1.0,3.0,74,0.00,,,0.00,weatherlink.com 1.10,2013-08-26 06:18:00,
2013-08-26 02:33:00,66.1,58.0,30.14,WSW,250,0.0,1.0,74,0.00,,,0.00,weatherlink.com 1.10,2013-08-26 06:33:00,
2013-08-26 02:48:00,66.2,58.0,30.14,WSW,249,0.0,2.0,74,0.00,,,0.00,weatherlink.com 1.10,2013-08-26 06:48:00,
2013-08-26 03:03:00,66.2,58.0,30.14,WSW,241,0.0,3.0,74,0.00,,,0.00,weatherlink.com 1.10,2013-08-26 07:03:00,
2013-08-26 03:18:00,66.3,58.0,30.13,SW,225,0.0,2.0,74,0.00,,,0.00,weatherlink.com 1.10,2013-08-26 07:18:00,
2013-08-26 03:33:00,66.0,58.0,30.13,SSW,210,0.0,1.0,75,0.00,,,0.00,weatherlink.com 1.10,2013-08-26 07:33:00,
2013-08-26 03:48:00,66.1,58.0,30.12,WSW,245,0.0,1.0,75,0.00,,,0.00,weatherlink.com 1.10,2013-08-26 07:48:00,
2013-08-26 04:03:00,66.2,58.0,30.12,WSW,241,0.0,1.0,75,0.00,,,0.00,weatherlink.com 1.10,2013-08-26 08:03:00,
2013-08-26 04:18:00,66.1,58.0,30.12,WSW,241,0.0,0.0,75,0.00,,,0.00,weatherlink.com 1.10,2013-08-26 08:18:00,
2013-08-26 04:33:00,66.1,58.0,30.11,ESE,119,1.0,1.0,75,0.00,,,0.00,weatherlink.com 1.10,2013-08-26 08:33:00,
2013-08-26 04:48:00,66.0,58.0,30.11,West,273,1.0,1.0,76,0.00,,,0.00,weatherlink.com 1.10,2013-08-26 08:48:00,
2013-08-26 05:03:00,66.0,58.0,30.11,WSW,242,0.0,2.0,76,0.00,,,0.00,weatherlink.com 1.10,2013-08-26 09:03:00,
2013-08-26 05:18:00,66.0,58.0,30.09,NNE,16,0.0,1.0,76,0.00,,,0.00,weatherlink.com 1.10,2013-08-26 09:18:00,
2013-08-26 05:33:00,66.0,58.0,30.10,SW,232,0.0,3.0,75,0.00,,,0.00,weatherlink.com 1.10,2013-08-26 09:33:00,
2013-08-26 05:48:00,65.7,58.0,30.10,ESE,115,0.0,1.0,76,0.00,,,0.00,weatherlink.com 1.10,2013-08-26 09:48:00,
2013-08-26 06:03:00,65.7,58.0,30.09,SSE,161,0.0,1.0,76,0.00,,,0.00,weatherlink.com 1.10,2013-08-26 10:03:00,
2013-08-26 06:18:00,65.8,58.0,30.09,ESE,110,1.0,2.0,76,0.00,,,0.00,weatherlink.com 1.10,2013-08-26 10:18:00,
2013-08-26 06:33:00,66.0,58.0,30.08,ESE,109,0.0,1.0,76,0.00,,,0.00,weatherlink.com 1.10,2013-08-26 10:33:00,
2013-08-26 06:48:00,66.0,58.0,30.09,WSW,237,0.0,2.0,75,0.00,,,0.00,weatherlink.com 1.10,2013-08-26 10:48:00,
2013-08-26 07:03:00,66.2,58.0,30.09,WSW,244,1.0,3.0,76,0.00,,,0.00,weatherlink.com 1.10,2013-08-26 11:03:00,
2013-08-26 07:18:00,66.4,59.0,30.08,NW,306,0.0,1.0,76,0.00,,,0.00,weatherlink.com 1.10,2013-08-26 11:18:00,
2013-08-26 07:33:00,66.6,59.0,30.08,East,88,0.0,2.0,76,0.00,,,0.00,weatherlink.com 1.10,2013-08-26 11:33:00,
2013-08-26 07:48:00,66.5,59.0,30.08,WNW,292,0.0,2.0,77,0.00,,,0.00,weatherlink.com 1.10,2013-08-26 11:48:00,
2013-08-26 08:03:00,66.0,60.0,30.08,East,96,0.0,3.0,80,0.00,,,0.00,weatherlink.com 1.10,2013-08-26 12:03:00,
2013-08-26 08:18:00,65.5,60.0,30.07,SSW,211,0.0,2.0,83,0.00,,,0.00,weatherlink.com 1.10,2013-08-26 12:18:00,
2013-08-26 08:33:00,65.6,60.0,30.07,NNE,24,0.0,7.0,82,0.00,,,0.00,weatherlink.com 1.10,2013-08-26 12:33:00,
2013-08-26 08:48:00,65.7,60.0,30.07,NW,304,0.0,4.0,81,0.00,,,0.00,weatherlink.com 1.10,2013-08-26 12:48:00,
2013-08-26 09:03:00,66.2,60.0,30.06,WSW,253,0.0,4.0,80,0.00,,,0.00,weatherlink.com 1.10,2013-08-26 13:03:00,
2013-08-26 09:18:00,66.5,60.0,30.05,West,274,2.0,3.0,80,0.00,,,0.00,weatherlink.com 1.10,2013-08-26 13:18:00,
2013-08-26 09:33:00,66.7,60.0,30.05,West,277,1.0,2.0,79,0.00,,,0.00,weatherlink.com 1.10,2013-08-26 13:33:00,
2013-08-26 09:48:00,67.0,60.0,30.04,NNE,19,0.0,5.0,79,0.00,,,0.00,weatherlink.com 1.10,2013-08-26 13:48:00,
2013-08-26 10:04:00,67.5,60.0,30.03,WSW,254,1.0,3.0,78,0.00,,,0.00,weatherlink.com 1.10,2013-08-26 14:04:00,
2013-08-26 10:19:00,68.4,61.0,30.03,WSW,246,4.0,6.0,76,0.00,,,0.00,weatherlink.com 1.10,2013-08-26 14:19:00,
2013-08-26 10:34:00,70.5,61.0,30.02,East,86,0.0,6.0,73,0.00,,,0.00,weatherlink.com 1.10,2013-08-26 14:34:00,
2013-08-26 10:49:00,72.0,62.0,30.02,SE,124,3.0,6.0,70,0.00,,,0.00,weatherlink.com 1.10,2013-08-26 14:49:00,
2013-08-26 11:04:00,73.2,62.0,30.01,WSW,257,4.0,5.0,68,0.00,,,0.00,weatherlink.com 1.10,2013-08-26 15:04:00,
2013-08-26 11:19:00,76.1,63.0,30.01,West,276,2.0,5.0,64,0.00,,,0.00,weatherlink.com 1.10,2013-08-26 15:19:00,
2013-08-26 11:34:00,77.6,62.0,30.00,SSW,205,1.0,11.0,59,0.00,,,0.00,weatherlink.com 1.10,2013-08-26 15:34:00,
2013-08-26 11:49:00,77.3,62.0,30.00,WSW,240,2.0,9.0,59,0.00,,,0.00,weatherlink.com 1.10,2013-08-26 15:49:00,
2013-08-26 12:04:00,77.5,62.0,29.99,SSE,167,1.0,7.0,60,0.00,,,0.00,weatherlink.com 1.10,2013-08-26 16:04:00,
2013-08-26 12:19:00,80.0,63.0,29.98,SE,135,2.0,10.0,57,0.00,,,0.00,weatherlink.com 1.10,2013-08-26 16:19:00,
2013-08-26 12:34:00,79.9,64.0,29.97,WNW,286,1.0,9.0,58,0.00,,,0.00,weatherlink.com 1.10,2013-08-26 16:34:00,
2013-08-26 12:49:00,80.2,63.0,29.96,SSW,208,4.0,10.0,57,0.00,,,0.00,weatherlink.com 1.10,2013-08-26 16:49:00,
2013-08-26 13:04:00,81.8,64.0,29.96,WSW,251,4.0,10.0,55,0.00,,,0.00,weatherlink.com 1.10,2013-08-26 17:04:00,
2013-08-26 13:19:00,81.4,63.0,29.96,SW,214,3.0,14.0,54,0.00,,,0.00,weatherlink.com 1.10,2013-08-26 17:19:00,
2013-08-26 13:34:00,80.6,64.0,29.95,WSW,256,4.0,11.0,57,0.00,,,0.00,weatherlink.com 1.10,2013-08-26 17:34:00,
2013-08-26 13:49:00,80.0,63.0,29.95,SW,233,2.0,10.0,57,0.00,,,0.00,weatherlink.com 1.10,2013-08-26 17:49:00,
2013-08-26 14:04:00,79.5,63.0,29.94,WSW,237,6.0,9.0,58,0.00,,,0.00,weatherlink.com 1.10,2013-08-26 18:04:00,
2013-08-26 14:19:00,80.4,64.0,29.93,NNW,337,4.0,7.0,57,0.00,,,0.00,weatherlink.com 1.10,2013-08-26 18:19:00,
2013-08-26 14:34:00,80.5,64.0,29.93,West,262,2.0,6.0,58,0.00,,,0.00,weatherlink.com 1.10,2013-08-26 18:34:00,
2013-08-26 14:49:00,81.6,65.0,29.92,WNW,283,2.0,5.0,57,0.00,,,0.00,weatherlink.com 1.10,2013-08-26 18:49:00,
2013-08-26 15:04:00,80.2,64.0,29.92,WSW,237,3.0,9.0,58,0.00,,,0.00,weatherlink.com 1.10,2013-08-26 19:04:00,
2013-08-26 15:19:00,79.5,65.0,29.91,WSW,240,0.0,6.0,61,0.00,,,0.00,weatherlink.com 1.10,2013-08-26 19:19:00,
2013-08-26 15:34:00,79.4,65.0,29.91,SSE,167,1.0,3.0,61,0.00,,,0.00,weatherlink.com 1.10,2013-08-26 19:34:00,
2013-08-26 15:49:00,79.3,65.0,29.91,West,260,0.0,4.0,62,0.00,,,0.00,weatherlink.com 1.10,2013-08-26 19:49:00,
2013-08-26 16:04:00,79.3,65.0,29.90,West,270,3.0,7.0,62,0.00,,,0.00,weatherlink.com 1.10,2013-08-26 20:04:00,
2013-08-26 16:19:00,79.0,65.0,29.91,WSW,256,4.0,6.0,63,0.00,,,0.00,weatherlink.com 1.10,2013-08-26 20:19:00,
2013-08-26 16:34:00,79.0,65.0,29.90,West,259,0.0,6.0,63,0.00,,,0.00,weatherlink.com 1.10,2013-08-26 20:34:00,
2013-08-26 16:50:00,78.5,65.0,29.90,SW,236,7.0,10.0,63,0.00,,,0.00,weatherlink.com 1.10,2013-08-26 20:50:00,
2013-08-26 17:05:00,78.0,65.0,29.90,WNW,285,2.0,7.0,64,0.00,,,0.00,weatherlink.com 1.10,2013-08-26 21:05:00,
2013-08-26 17:20:00,78.0,65.0,29.90,SSE,158,0.0,4.0,65,0.00,,,0.00,weatherlink.com 1.10,2013-08-26 21:20:00,
2013-08-26 17:35:00,77.9,66.0,29.89,West,269,0.0,5.0,66,0.00,,,0.00,weatherlink.com 1.10,2013-08-26 21:35:00,
2013-08-26 17:50:00,77.9,66.0,29.89,West,267,0.0,4.0,66,0.00,,,0.00,weatherlink.com 1.10,2013-08-26 21:50:00,
2013-08-26 18:05:00,77.8,66.0,29.88,West,259,3.0,5.0,67,0.00,,,0.00,weatherlink.com 1.10,2013-08-26 22:05:00,
2013-08-26 18:20:00,78.1,66.0,29.88,WSW,250,0.0,2.0,67,0.00,,,0.00,weatherlink.com 1.10,2013-08-26 22:20:00,
2013-08-26 18:35:00,78.0,67.0,29.89,West,265,0.0,3.0,68,0.00,,,0.00,weatherlink.com 1.10,2013-08-26 22:35:00,
2013-08-26 18:50:00,77.6,67.0,29.88,West,271,2.0,5.0,69,0.00,,,0.00,weatherlink.com 1.10,2013-08-26 22:50:00,
2013-08-26 19:05:00,77.4,66.0,29.88,SW,225,1.0,3.0,69,0.00,,,0.00,weatherlink.com 1.10,2013-08-26 23:05:00,
2013-08-26 19:20:00,76.8,66.0,29.88,SW,221,0.0,3.0,70,0.00,,,0.00,weatherlink.com 1.10,2013-08-26 23:20:00,
2013-08-26 19:35:00,76.6,67.0,29.88,WSW,242,0.0,2.0,71,0.00,,,0.00,weatherlink.com 1.10,2013-08-26 23:35:00,
2013-08-26 19:50:00,76.3,66.0,29.88,SW,229,0.0,1.0,71,0.00,,,0.00,weatherlink.com 1.10,2013-08-26 23:50:00,
2013-08-26 20:05:00,76.1,66.0,29.88,SW,233,1.0,1.0,72,0.00,,,0.00,weatherlink.com 1.10,2013-08-27 00:05:00,
2013-08-26 20:20:00,75.5,66.0,29.88,West,261,0.0,1.0,73,0.00,,,0.00,weatherlink.com 1.10,2013-08-27 00:20:00,
2013-08-26 20:35:00,75.2,66.0,29.88,SW,229,1.0,3.0,73,0.00,,,0.00,weatherlink.com 1.10,2013-08-27 00:35:00,
2013-08-26 20:50:00,74.9,66.0,29.88,SW,225,0.0,3.0,74,0.00,,,0.00,weatherlink.com 1.10,2013-08-27 00:50:00,
2013-08-26 21:05:00,74.7,66.0,29.88,West,279,0.0,1.0,74,0.00,,,0.00,weatherlink.com 1.10,2013-08-27 01:05:00,
2013-08-26 21:20:00,74.5,66.0,29.88,West,280,0.0,2.0,74,0.00,,,0.00,weatherlink.com 1.10,2013-08-27 01:20:00,
2013-08-26 21:35:00,74.3,66.0,29.88,WSW,252,0.0,2.0,75,0.00,,,0.00,weatherlink.com 1.10,2013-08-27 01:35:00,
2013-08-26 21:50:00,74.1,66.0,29.88,SW,234,0.0,2.0,76,0.00,,,0.00,weatherlink.com 1.10,2013-08-27 01:50:00,
2013-08-26 22:05:00,73.9,66.0,29.88,WSW,237,0.0,3.0,76,0.00,,,0.00,weatherlink.com 1.10,2013-08-27 02:05:00,
2013-08-26 22:20:00,73.9,66.0,29.88,West,264,1.0,4.0,76,0.00,,,0.00,weatherlink.com 1.10,2013-08-27 02:20:00,
2013-08-26 22:35:00,73.7,66.0,29.88,West,272,2.0,4.0,76,0.00,,,0.00,weatherlink.com 1.10,2013-08-27 02:35:00,
2013-08-26 22:50:00,73.7,66.0,29.88,SW,234,1.0,5.0,77,0.00,,,0.00,weatherlink.com 1.10,2013-08-27 02:50:00,
2013-08-26 23:05:00,73.6,66.0,29.87,SSW,210,0.0,1.0,77,0.00,,,0.00,weatherlink.com 1.10,2013-08-27 03:05:00,
2013-08-26 23:20:00,73.3,66.0,29.86,West,271,0.0,2.0,77,0.00,,,0.00,weatherlink.com 1.10,2013-08-27 03:20:00,
2013-08-26 23:35:00,73.0,66.0,29.86,SSW,213,0.0,2.0,78,0.00,,,0.00,weatherlink.com 1.10,2013-08-27 03:35:00,
2013-08-26 23:50:00,72.6,66.0,29.86,WSW,243,1.0,2.0,79,0.00,,,0.00,weatherlink.com 1.10,2013-08-27 03:50:00,